Location: Holyhead Bay
(53.3667°N, 4.6667°W)
Time: 18:57:15
(UTC+00:00)

SJ 16-02 - Pass Details

Date: 24 November 2020
Orbit: 606 x 616 km, 75.0° (Epoch: 17 January)

Event Time Altitude Azimuth Distance (km) Brightness Sun altitude
Rises 16:43:36 0° 325° (NW) 2,901 4.9 -5.1°
Reaches altitude 10° 16:46:20 10° 309° (NW) 1,990 4.3 -5.5°
Maximum altitude 16:49:32 20° 263° (W) 1,450 4.4 -5.9°
Drops below altitude 10° 16:52:42 10° 216° (SW) 1,976 5.1 -6.3°
Sets 16:55:25 0° 200° (SSW) 2,874 5.6 -6.7°
